Flag for Russia Weather past 2 weeks in Murmansk, Russia

Now
72 °F

Broken clouds.


Feels Like: 77 °F
Forecast: 51 / 66 °F
Wind: 8 mph from North

Location: Murmansk Airport

Current Time: Jul 22, 2014 at 6:08:57 PM

Latest Report: Jul 22, 2014 at 5:00 PM


Visibility: N/A

Pressure: 30.15 "Hg

Humidity: 53%

Dew point: 54 °F

Location of MurmanskLocation

Historic Weather in Murmansk — Graph

°F

Murmansk temperature yesterday

Maximum temperature yesterday: 81 °F (at 2:30 PM)
Minimum temperature yesterday: 52 °F (at 3:00 AM)
Average temperature yesterday: 66 °F

Past Weeks' High & Low Weather Summary

 TemperatureHumidityPressure
High82 °F (Jul 7, 6:00 PM)94% (Jul 8, 6:30 AM)30.39 "Hg (Jul 8, 6:30 AM)
Low36 °F (Jul 10, 3:30 AM)26% (Jul 7, 5:00 PM)29.92 "Hg (Jul 15, 7:30 AM)
Average60 °F67%30.15 "Hg
* Reported Jul 7 4:00 PM — Jul 22 4:30 PM, Murmansk, Weather by CustomWeather, © 2014

Note: Actual official high and low records may vary slightly from our data, if they occured in-between our weather recording intervals... More about our weather records

Advertising

Murmansk weather history for previous 24 hours

 ConditionsComfort  
Time TempWeatherWind HumidityBarometerVisibility
4:30 PM
Jul 22
73 °FBroken clouds.8 mph44%30.15 "HgN/A
4:00 PM73 °FBroken clouds.6 mph44%30.15 "HgN/A
3:30 PM72 °FBroken clouds.6 mph47%30.15 "HgN/A
3:00 PM72 °FBroken clouds.6 mph50%30.15 "HgN/A
2:30 PM72 °FBroken clouds.3 mph53%30.15 "HgN/A
2:00 PM72 °FBroken clouds.3 mph53%30.15 "HgN/A
1:30 PM72 °FBroken clouds.3 mph53%30.15 "HgN/A
1:00 PM72 °FBroken clouds.3 mph57%30.15 "HgN/A
12:30 PM70 °FBroken clouds.1 mph60%30.15 "HgN/A
12:00 PM70 °FSunny.1 mph60%30.15 "Hg10 mi
11:30 AM68 °FSunny.1 mph64%30.15 "Hg10 mi
11:00 AM66 °FSunny.1 mph64%30.15 "Hg10 mi
10:30 AM64 °FSunny.1 mph68%30.15 "Hg10 mi
10:00 AM64 °FSunny.1 mph64%30.15 "Hg10 mi
9:30 AM63 °FSunny.1 mph68%30.15 "Hg10 mi
9:00 AM61 °FSunny.No wind72%30.15 "Hg10 mi
8:30 AM61 °FSunny.No wind68%30.15 "Hg10 mi
8:00 AM59 °FSunny.1 mph72%30.15 "Hg10 mi
7:30 AM59 °FBroken clouds.1 mph72%30.15 "HgN/A
7:00 AM57 °FBroken clouds.1 mph77%30.15 "HgN/A
6:30 AM57 °FBroken clouds.1 mph77%30.15 "HgN/A
6:00 AM55 °FBroken clouds.1 mph82%30.15 "HgN/A
5:30 AM55 °FBroken clouds.No wind82%30.15 "HgN/A
5:00 AM54 °FBroken clouds.3 mph88%30.15 "HgN/A
4:30 AM55 °FBroken clouds.1 mph82%30.15 "HgN/A
4:00 AM55 °FPartly sunny.3 mph82%30.15 "HgN/A
3:30 AM55 °FPartly sunny.1 mph82%30.15 "HgN/A
3:00 AM55 °FPartly sunny.No wind82%30.15 "HgN/A
2:30 AM57 °FPartly sunny.3 mph82%30.15 "HgN/A
2:00 AM57 °FPartly sunny.1 mph82%30.15 "HgN/A
1:00 AM59 °FBroken clouds.No wind77%30.15 "HgN/A
12:30 AM59 °FBroken clouds.No wind82%30.15 "HgN/A
12:00 AM59 °FBroken clouds.3 mph82%30.15 "HgN/A
11:30 PM
Jul 21
61 °FPartly sunny.1 mph77%30.15 "HgN/A
11:00 PM61 °FSunny.3 mph77%30.15 "Hg10 mi
10:30 PM61 °FSunny.1 mph77%30.15 "Hg10 mi
10:00 PM63 °FSunny.6 mph77%30.12 "Hg10 mi
9:30 PM64 °FSunny.3 mph78%30.12 "Hg10 mi
9:00 PM68 °FBroken clouds.3 mph78%30.12 "HgN/A
8:30 PM68 °FBroken clouds.3 mph78%30.12 "HgN/A
8:00 PM70 °FBroken clouds.1 mph69%30.12 "HgN/A
7:30 PM68 °FBroken clouds.3 mph78%30.12 "HgN/A
7:00 PM66 °FPartly sunny.3 mph83%30.12 "HgN/A
6:30 PM66 °FSprinkles. Partly sunny.3 mph88%30.12 "HgN/A
6:00 PM64 °FSprinkles. Partly sunny.6 mph88%30.15 "Hg6 mi
Weather by CustomWeather, © 2014

See weather overviewHow to use our weather pages